KC3BAN Davidsonville MD US current weather conditions

sailwx.info

Wind from 232

Air temperature 5.0° C
Dewpoint 2.5° C

Last reported at 2019-Dec-08 22:55 UTC.
Time now 2019-Dec-08 23:23 UTC

Location: N 38°54' W 076°37'.
View on Google Maps.

See reports from other nearby stations

  
Tides and Currents Weather Stations Pressure Air Temp Water Temp Dewpoint Dewpoint Depression Visibility Wind Speed Wind Dir Waves Ship Positions
date/time (UTC)wind fromknots sea level pressurealtimeterstation pressurevisibilityair tempwater tempwave heightnotes
2019-Dec-08 23:05 232 5.0
2019-Dec-08 23:00 232 5.0
2019-Dec-08 22:55 232 5.0
2019-Dec-08 22:50 124 5.0
2019-Dec-08 22:45 124 5.0
2019-Dec-08 22:40 124 5.0
2019-Dec-08 22:35 124 4.4
2019-Dec-08 22:30 124 4.4
2019-Dec-08 22:20 124 4.4
2019-Dec-08 22:15 124 4.4
2019-Dec-08 22:10 124 5.0
2019-Dec-08 22:05 124 5.0
2019-Dec-08 22:00 124 5.0
2019-Dec-08 21:50 238 5.6
2019-Dec-08 21:45 238 5.6
2019-Dec-08 21:40 336 6.1
2019-Dec-08 21:35 103 6.1
2019-Dec-08 21:30 103 6.1
2019-Dec-08 21:20 219 6.7
2019-Dec-08 21:15 002 6.7
2019-Dec-08 21:10 274 6.7
2019-Dec-08 21:05 139 7.2
2019-Dec-08 21:00 200 7.2
2019-Dec-08 20:55 247 7.2
2019-Dec-08 20:50 255 7.8
2019-Dec-08 20:45 136 7.8
2019-Dec-08 20:40 350 7.8
2019-Dec-08 20:30 096 8.3
2019-Dec-08 20:25 139 8.3
2019-Dec-08 20:20 290 8.9
2019-Dec-08 20:15 155 8.9
2019-Dec-08 20:10 050 8.9
2019-Dec-08 20:00 335 8.9
2019-Dec-08 19:55 349 8.9
2019-Dec-08 19:50 048 8.9
2019-Dec-08 19:40 233 8.3
2019-Dec-08 19:35 072 8.3
2019-Dec-08 19:30 075 0 gusting 3 8.3
2019-Dec-08 19:25 217 0 gusting 4 8.3
2019-Dec-08 19:20 163 8.3
2019-Dec-08 19:15 215 8.3
2019-Dec-08 19:10 285 0 gusting 5 8.3
2019-Dec-08 19:05 210 0 gusting 5 8.3
2019-Dec-08 19:00 213 8.9
2019-Dec-08 18:55 152 8.3
2019-Dec-08 18:50 217 8.3
2019-Dec-08 18:45 080 0 gusting 6 8.3
2019-Dec-08 18:40 224 8.3
2019-Dec-08 18:35 042 8.3
2019-Dec-08 18:30 075 8.3
2019-Dec-08 18:25 111 7.8
2019-Dec-08 18:20 056 7.8
2019-Dec-08 18:15 075 7.8
2019-Dec-08 18:10 112 7.8
2019-Dec-08 18:05 096 7.8
2019-Dec-08 18:00 290 7.8
2019-Dec-08 17:55 102 7.8
2019-Dec-08 17:50 138 7.8
2019-Dec-08 17:45 054 7.8
2019-Dec-08 17:40 242 0 gusting 4 7.2
2019-Dec-08 17:35 086 7.8
2019-Dec-08 17:30 243 7.8
2019-Dec-08 17:25 155 7.2
2019-Dec-08 17:20 181 7.2
2019-Dec-08 17:15 187 7.2
2019-Dec-08 17:10 294 6.7
2019-Dec-08 17:05 034 6.7
2019-Dec-08 17:00 113 6.7
2019-Dec-08 16:55 038 6.7
2019-Dec-08 16:50 072 6.7
2019-Dec-08 16:45 193 6.7
2019-Dec-08 16:40 255 6.7
2019-Dec-08 16:35 077 6.1
2019-Dec-08 16:30 338 6.1
2019-Dec-08 16:25 346 0 gusting 6 5.6
2019-Dec-08 16:20 222 0 gusting 6 5.6
2019-Dec-08 16:15 219 5.6
2019-Dec-08 16:10 246 5.6
2019-Dec-08 16:05 030 5.6
2019-Dec-08 16:00 099 5.0
2019-Dec-08 15:55 238 5.0
2019-Dec-08 15:50 086 5.0
2019-Dec-08 15:45 291 5.0
2019-Dec-08 15:40 146 4.4
2019-Dec-08 15:35 354 4.4
2019-Dec-08 15:30 236 4.4
2019-Dec-08 15:25 267 3.9
2019-Dec-08 15:20 139 3.9
2019-Dec-08 15:15 157 3.3
2019-Dec-08 15:10 070 3.3
2019-Dec-08 15:05 245 2.8
2019-Dec-08 15:00 065 2.8
2019-Dec-08 14:55 281 2.2
2019-Dec-08 14:50 074 1.7
2019-Dec-08 14:45 111 1.1
2019-Dec-08 14:40 111 1.1
2019-Dec-08 14:35 111 0.6
2019-Dec-08 14:30 111 0.6
2019-Dec-08 14:24 111 -0.0
2019-Dec-08 14:20 111 -0.6
2019-Dec-08 14:15 111 -0.6
2019-Dec-08 14:10 111 -1.1
2019-Dec-08 14:05 111 -1.7
2019-Dec-08 14:00 286 -1.7
2019-Dec-08 13:54 286 -2.2
2019-Dec-08 13:49 286 -2.8
2019-Dec-08 13:44 286 -3.3
2019-Dec-08 13:39 286 -3.3
2019-Dec-08 13:34 286 -3.9
2019-Dec-08 13:29 286 -4.4
2019-Dec-08 13:24 286 -4.4
2019-Dec-08 13:19 286 -4.4
2019-Dec-08 13:14 286 -5.0
2019-Dec-08 13:09 286 -5.0
2019-Dec-08 13:04 286 -5.0
2019-Dec-08 12:59 286 -5.6
2019-Dec-08 12:54 286 -5.6
2019-Dec-08 12:49 286 -5.6
2019-Dec-08 12:44 286 -5.6
2019-Dec-08 12:39 286 -5.6
2019-Dec-08 12:34 286 -5.6
2019-Dec-08 12:29 286 -5.6
2019-Dec-08 12:24 286 -5.6
2019-Dec-08 12:19 286 -5.6
2019-Dec-08 12:14 286 -5.6
2019-Dec-08 12:09 286 -5.6
2019-Dec-08 12:04 286 -5.6
2019-Dec-08 11:59 286 -5.6
2019-Dec-08 11:54 286 -5.6
2019-Dec-08 11:49 286 -5.6
2019-Dec-08 11:44 286 -5.6
2019-Dec-08 11:39 286 -5.6
2019-Dec-08 11:34 286 -5.6
2019-Dec-08 11:29 286 -5.6
2019-Dec-08 11:24 286 -5.6
2019-Dec-08 11:19 286 -5.6
2019-Dec-08 11:14 286 -5.0
2019-Dec-08 11:09 286 -5.0
2019-Dec-08 11:04 286 -5.0
2019-Dec-08 10:59 286 -5.0
2019-Dec-08 10:54 286 -5.0
2019-Dec-08 10:49 286 -5.0
2019-Dec-08 10:44 286 -5.0
2019-Dec-08 10:39 286 -4.4
2019-Dec-08 10:34 286 -4.4
2019-Dec-08 10:29 286 -5.0
2019-Dec-08 10:24 286 -5.0
2019-Dec-08 10:19 286 -5.0
2019-Dec-08 10:14 286 -5.0
2019-Dec-08 10:09 286 -5.0
2019-Dec-08 10:04 286 -5.0
2019-Dec-08 09:59 286 -5.0
2019-Dec-08 09:54 286 -4.4
2019-Dec-08 09:49 286 -4.4
2019-Dec-08 09:44 286 -4.4
2019-Dec-08 09:39 286 -4.4
2019-Dec-08 09:34 286 -4.4
2019-Dec-08 09:29 287 -4.4
2019-Dec-08 09:24 287 -4.4
2019-Dec-08 09:19 287 -4.4
2019-Dec-08 09:14 287 -4.4
2019-Dec-08 09:09 287 -4.4
2019-Dec-08 09:04 287 -4.4
2019-Dec-08 08:59 287 -4.4
2019-Dec-08 08:54 287 -4.4
2019-Dec-08 08:49 287 -4.4
2019-Dec-08 08:44 287 -4.4
2019-Dec-08 08:39 287 -4.4
2019-Dec-08 08:34 287 -4.4
2019-Dec-08 08:29 286 -4.4
2019-Dec-08 08:24 287 -4.4
2019-Dec-08 08:19 287 -4.4
2019-Dec-08 08:14 287 -3.9
2019-Dec-08 08:09 287 -3.9
2019-Dec-08 08:04 287 -4.4
2019-Dec-08 07:59 287 -4.4
2019-Dec-08 07:54 287 -4.4
2019-Dec-08 07:49 287 -4.4
2019-Dec-08 07:44 287 -4.4
2019-Dec-08 07:39 287 -5.0
2019-Dec-08 07:34 287 -5.0
2019-Dec-08 07:29 287 -5.0
2019-Dec-08 07:24 287 -5.0
2019-Dec-08 07:19 287 -5.0
2019-Dec-08 07:14 287 -5.0
2019-Dec-08 07:09 287 -5.0
2019-Dec-08 07:04 287 -5.0
2019-Dec-08 06:59 287 -4.4
2019-Dec-08 06:54 287 -5.0
2019-Dec-08 06:49 287 -5.0
2019-Dec-08 06:44 287 -5.6
2019-Dec-08 06:39 287 -5.6
2019-Dec-08 06:34 287 -5.6
2019-Dec-08 06:29 287 -5.6
2019-Dec-08 06:24 287 -5.6
2019-Dec-08 06:19 287 -5.6
2019-Dec-08 06:14 287 -5.0
2019-Dec-08 06:09 287 -5.0
2019-Dec-08 06:04 287 -5.0
2019-Dec-08 05:59 287 -5.0
2019-Dec-08 05:54 287 -5.0
2019-Dec-08 05:49 287 -5.0
2019-Dec-08 05:44 287 -5.0
2019-Dec-08 05:39 287 -5.0
2019-Dec-08 05:34 287 -4.4
2019-Dec-08 05:29 287 -4.4
2019-Dec-08 05:24 287 -4.4
2019-Dec-08 05:19 287 -4.4
2019-Dec-08 05:14 287 -5.0
2019-Dec-08 05:09 287 -5.0
2019-Dec-08 05:04 287 -5.0
2019-Dec-08 04:59 287 -5.0
2019-Dec-08 04:54 287 -5.0
2019-Dec-08 04:49 287 -4.4
2019-Dec-08 04:44 287 -4.4
2019-Dec-08 04:39 287 -4.4
2019-Dec-08 04:34 287 -4.4
2019-Dec-08 04:29 287 -4.4
2019-Dec-08 04:24 287 -4.4
2019-Dec-08 04:19 287 -4.4
2019-Dec-08 04:14 287 -4.4
2019-Dec-08 04:09 287 -4.4
2019-Dec-08 04:04 287 -4.4
2019-Dec-08 03:59 287 -4.4
2019-Dec-08 03:54 287 -4.4
2019-Dec-08 03:49 287 -4.4
2019-Dec-08 03:44 287 -4.4
2019-Dec-08 03:39 287 -4.4
2019-Dec-08 03:34 287 -3.9
2019-Dec-08 03:29 287 -3.9
2019-Dec-08 03:24 287 -3.9
2019-Dec-08 03:19 287 -3.3
2019-Dec-08 03:14 287 -3.3
2019-Dec-08 03:09 287 -3.3
2019-Dec-08 03:04 287 -3.3
2019-Dec-08 02:59 287 -3.3
2019-Dec-08 02:54 287 -2.8
2019-Dec-08 02:49 287 -2.8
2019-Dec-08 02:44 287 -2.2
2019-Dec-08 02:39 287 -2.2
2019-Dec-08 02:34 287 -2.8
2019-Dec-08 02:29 287 -3.3
2019-Dec-08 02:24 287 -3.3
2019-Dec-08 02:19 287 -3.9
2019-Dec-08 02:14 287 -3.9
2019-Dec-08 02:09 286 -3.9
2019-Dec-08 02:04 287 -3.9
2019-Dec-08 01:59 287 -3.9
2019-Dec-08 01:54 286 -3.9
2019-Dec-08 01:49 286 -3.3
2019-Dec-08 01:44 286 -3.3
2019-Dec-08 01:39 286 -3.3
2019-Dec-08 01:34 286 -3.3
2019-Dec-08 01:29 287 -3.3
2019-Dec-08 01:24 286 -3.3
2019-Dec-08 01:19 286 -3.3
2019-Dec-08 01:14 286 -3.3
2019-Dec-08 01:09 287 -3.3
2019-Dec-08 01:04 286 -3.3
2019-Dec-08 00:59 286 -3.3
2019-Dec-08 00:54 286 -3.3
2019-Dec-08 00:49 286 -2.8
2019-Dec-08 00:44 286 -2.8
2019-Dec-08 00:39 286 -2.8
2019-Dec-08 00:34 286 -2.8
2019-Dec-08 00:29 286 -2.8
2019-Dec-08 00:24 287 -2.8
2019-Dec-08 00:19 286 -2.8
2019-Dec-08 00:13 286 -2.8
2019-Dec-08 00:08 287 -2.2
2019-Dec-08 00:03 287 -2.2
2019-Dec-07 23:58 286 -2.2
2019-Dec-07 23:53 286 -2.2
2019-Dec-07 23:48 286 -2.2
2019-Dec-07 23:43 286 -1.7
2019-Dec-07 23:38 286 -1.7
2019-Dec-07 23:33 286 -1.7
2019-Dec-07 23:28 286 -1.1
2019-Dec-07 23:23 286 -1.1
2019-Dec-07 23:18 286 -1.1
2019-Dec-07 23:13 286 -0.6
2019-Dec-07 23:08 287 -0.6
2019-Dec-07 23:03 286 -0.6
2019-Dec-07 22:58 286 -0.6
2019-Dec-07 22:53 286 -0.6
2019-Dec-07 22:48 287 -0.6
2019-Dec-07 22:43 287 -0.6
2019-Dec-07 22:38 287 -0.0
2019-Dec-07 22:33 287 -0.0
2019-Dec-07 22:28 287 -0.0
2019-Dec-07 22:23 287 0.6
2019-Dec-07 22:18 287 0.6
2019-Dec-07 22:13 287 1.1
2019-Dec-07 22:08 287 1.7
2019-Dec-07 22:03 287 1.7
2019-Dec-07 21:58 287 2.2
2019-Dec-07 21:53 287 2.8
2019-Dec-07 21:48 287 2.8
2019-Dec-07 21:43 287 3.3
2019-Dec-07 21:38 287 3.9
2019-Dec-07 21:33 287 3.9
2019-Dec-07 21:28 287 4.4
2019-Dec-07 21:23 287 4.4
2019-Dec-07 21:18 287 4.4
2019-Dec-07 21:13 281 5.0
2019-Dec-07 21:08 333 5.0
2019-Dec-07 21:03 330 5.0
2019-Dec-07 20:58 330 5.6
2019-Dec-07 20:53 330 5.6
2019-Dec-07 20:48 349 5.6
2019-Dec-07 20:43 356 5.6
2019-Dec-07 20:38 281 6.1
2019-Dec-07 20:33 320 6.1
2019-Dec-07 20:28 274 6.7
2019-Dec-07 20:23 299 6.7
2019-Dec-07 20:18 304 6.7
2019-Dec-07 20:13 315 6.7
2019-Dec-07 20:08 311 6.7
2019-Dec-07 20:03 307 6.7
2019-Dec-07 19:58 356 6.7
2019-Dec-07 19:53 309 6.7
2019-Dec-07 19:48 212 0 gusting 4 6.7
2019-Dec-07 19:43 288 0 gusting 4 6.7
2019-Dec-07 19:38 027 0 gusting 3 6.7
2019-Dec-07 19:33 357 0 gusting 3 6.7
2019-Dec-07 19:28 003 0 gusting 4 6.7
2019-Dec-07 19:23 166 0 gusting 4 6.7
2019-Dec-07 19:18 084 0 gusting 5 6.7
2019-Dec-07 19:13 321 0 gusting 6 6.7
2019-Dec-07 19:08 348 0 gusting 6 6.7
2019-Dec-07 19:03 245 6.7
2019-Dec-07 18:58 261 0 gusting 4 6.1
2019-Dec-07 18:53 278 0 gusting 4 6.1
2019-Dec-07 18:48 213 0 gusting 3 6.1
2019-Dec-07 18:43 302 0 gusting 3 6.1
2019-Dec-07 18:38 255 0 gusting 3 6.1
2019-Dec-07 18:33 032 6.1
2019-Dec-07 18:28 299 0 gusting 2 6.7
2019-Dec-07 18:23 357 0 gusting 4 6.1
2019-Dec-07 18:18 029 0 gusting 4 6.1
2019-Dec-07 18:13 6.1
2019-Dec-07 18:08 316 1 gusting 4 6.1
2019-Dec-07 18:03 347 0 gusting 4 6.1
2019-Dec-07 17:58 203 0 gusting 4 6.1
2019-Dec-07 17:53 280 0 gusting 4 6.1
2019-Dec-07 17:48 004 6.1
2019-Dec-07 17:43 319 6.1
2019-Dec-07 17:38 303 1 gusting 5 6.1
2019-Dec-07 17:33 313 1 gusting 5 6.1
2019-Dec-07 17:28 044 1 gusting 5 6.1
2019-Dec-07 17:23 008 1 gusting 5 5.6
2019-Dec-07 17:18 354 1 gusting 5 5.6
2019-Dec-07 17:13 308 1 gusting 5 5.6
2019-Dec-07 17:08 295 1 gusting 6 5.6
2019-Dec-07 17:03 011 1 gusting 6 5.6
2019-Dec-07 16:58 070 0 gusting 5 5.6
2019-Dec-07 16:53 020 0 gusting 3 5.6
2019-Dec-07 16:48 326 0 gusting 6 5.6
2019-Dec-07 16:43 056 0 gusting 6 5.0
2019-Dec-07 16:38 240 0 gusting 3 5.0
2019-Dec-07 16:33 098 1 gusting 5 5.0
2019-Dec-07 16:28 047 0 gusting 5 5.0
2019-Dec-07 16:23 335 0 gusting 3 5.0
2019-Dec-07 16:18 222 5.0
2019-Dec-07 16:13 281 5.0
2019-Dec-07 16:08 308 0 gusting 2 5.0
2019-Dec-07 16:03 013 0 gusting 3 5.0
2019-Dec-07 15:58 028 5.0
2019-Dec-07 15:53 271 0 gusting 3 4.4
2019-Dec-07 15:48 062 0 gusting 3 4.4
2019-Dec-07 15:43 029 0 gusting 3 4.4
2019-Dec-07 15:38 040 1 gusting 5 4.4
2019-Dec-07 15:33 311 0 gusting 5 4.4
2019-Dec-07 15:28 304 0 gusting 4 4.4
2019-Dec-07 15:23 011 0 gusting 3 4.4
2019-Dec-07 14:18 236 1.7
2019-Dec-07 14:13 082 1.7
2019-Dec-07 14:08 055 1.1
2019-Dec-07 14:03 012 1.1
2019-Dec-07 13:58 328 0.6
2019-Dec-07 13:53 292 -0.0
2019-Dec-07 13:48 292 -0.0
2019-Dec-07 13:43 292 -0.6
2019-Dec-07 13:38 292 -0.6
2019-Dec-07 13:33 252 -1.1
2019-Dec-07 13:28 252 -1.1
2019-Dec-07 13:23 252 -1.7
2019-Dec-07 13:18 252 -1.7
2019-Dec-07 13:13 264 -2.2
2019-Dec-07 13:08 290 -2.8
2019-Dec-07 13:03 290 -2.8
2019-Dec-07 12:58 290 -3.3
2019-Dec-07 12:53 290 -3.3
2019-Dec-07 12:48 290 -3.3
2019-Dec-07 12:43 290 -3.3
2019-Dec-07 12:38 290 -3.3
2019-Dec-07 12:33 290 -3.3
2019-Dec-07 12:28 290 -3.3
2019-Dec-07 12:23 290 -3.3
2019-Dec-07 12:18 290 -3.3
2019-Dec-07 12:13 290 -3.3
2019-Dec-07 12:08 290 -3.3
2019-Dec-07 12:03 290 -3.3
2019-Dec-07 11:58 290 -3.3
2019-Dec-07 11:53 290 -3.3
2019-Dec-07 11:48 290 -2.8
2019-Dec-07 11:43 290 -2.8
2019-Dec-07 11:38 290 -2.2
2019-Dec-07 11:33 290 -2.2
2019-Dec-07 11:28 290 -1.7
2019-Dec-07 11:23 289 -1.7
2019-Dec-07 11:18 290 -1.7
2019-Dec-07 11:13 290 -1.1
2019-Dec-07 11:08 290 -1.1
2019-Dec-07 11:03 290 -0.6
2019-Dec-07 10:58 290 -0.6
2019-Dec-07 10:53 290 -0.6
2019-Dec-07 10:48 290 -0.0
2019-Dec-07 10:43 290 -0.0
2019-Dec-07 10:38 290 -0.0
2019-Dec-07 10:33 290 0.6
2019-Dec-07 10:28 290 0.6
2019-Dec-07 10:23 290 0.6
2019-Dec-07 10:18 290 0.6
2019-Dec-07 10:13 290 1.1
2019-Dec-07 10:08 290 1.1
2019-Dec-07 10:03 290 1.1
2019-Dec-07 09:58 284 1.1
2019-Dec-07 09:53 284 1.7
2019-Dec-07 09:48 284 1.7
2019-Dec-07 09:43 306 1.7
2019-Dec-07 09:38 320 1.7
2019-Dec-07 09:33 340 1.7
2019-Dec-07 09:28 294 1.7
2019-Dec-07 09:23 299 1.7
2019-Dec-07 09:18 300 1.7
2019-Dec-07 09:13 321 1.7
2019-Dec-07 09:08 318 2.2
2019-Dec-07 09:03 318 2.2
2019-Dec-07 08:58 354 2.2
2019-Dec-07 08:53 262 2.2
2019-Dec-07 08:48 262 2.8
2019-Dec-07 08:43 348 2.8
2019-Dec-07 08:38 311 2.8
2019-Dec-07 08:33 354 2.8
2019-Dec-07 08:28 321 2.8
2019-Dec-07 08:23 319 2.8
2019-Dec-07 08:18 044 2.8
2019-Dec-07 08:13 273 2.8
2019-Dec-07 08:08 273 3.3
2019-Dec-07 08:03 273 3.3
2019-Dec-07 07:58 339 3.3
2019-Dec-07 07:53 311 3.9
2019-Dec-07 07:48 038 0 gusting 3 3.9
2019-Dec-07 07:43 089 1 gusting 6 4.4
2019-Dec-07 07:38 343 0 gusting 6 4.4
2019-Dec-07 07:33 055 4.4
2019-Dec-07 07:28 340 4.4
2019-Dec-07 07:23 347 4.4
2019-Dec-07 07:18 307 0 gusting 3 5.0
2019-Dec-07 07:13 5.0
2019-Dec-07 07:08 025 0 gusting 4 5.0
2019-Dec-07 07:03 340 2 gusting 6 5.6
2019-Dec-07 06:58 333 3 gusting 6 5.6
2019-Dec-07 06:53 358 2 gusting 6 5.6
2019-Dec-07 06:48 354 2 gusting 6 5.6
2019-Dec-07 06:43 352 2 gusting 6 6.1
2019-Dec-07 06:38 340 1 gusting 6 6.1
2019-Dec-07 06:33 358 1 gusting 6 6.1
2019-Dec-07 06:28 338 0 gusting 5 6.7
2019-Dec-07 06:23 356 0 gusting 4 6.7
2019-Dec-07 06:18 333 1 gusting 5 6.7
2019-Dec-07 06:13 004 2 gusting 6 6.7
2019-Dec-07 06:08 344 2 gusting 6 6.7
2019-Dec-07 06:03 007 2 gusting 7 6.7
2019-Dec-07 05:58 347 2 gusting 8 7.2
2019-Dec-07 05:53 013 1 gusting 8 7.2
2019-Dec-07 05:48 037 0 gusting 5 7.2
2019-Dec-07 05:43 356 0 gusting 5 7.2
2019-Dec-07 05:38 316 0 gusting 6 7.2
2019-Dec-07 05:33 002 0 gusting 6 7.2
2019-Dec-07 05:28 301 1 gusting 8 7.2
2019-Dec-07 05:23 345 1 gusting 8 7.8
2019-Dec-07 05:18 032 1 gusting 6 7.8
2019-Dec-07 05:13 319 2 gusting 8 7.8
2019-Dec-07 05:08 341 3 gusting 8 7.8
2019-Dec-07 05:03 328 2 gusting 7 7.8
2019-Dec-07 04:58 314 2 gusting 6 7.8
2019-Dec-07 04:53 006 3 gusting 8 8.3
2019-Dec-07 04:48 345 3 gusting 8 8.3
2019-Dec-07 04:43 351 4 gusting 7 8.3
2019-Dec-07 04:38 326 4 gusting 12 8.3
2019-Dec-07 04:33 332 4 gusting 12 8.9
2019-Dec-07 04:28 337 3 gusting 11 8.9
2019-Dec-07 04:23 349 2 gusting 8 9.4
2019-Dec-07 04:18 326 3 gusting 8 9.4
2019-Dec-07 04:13 002 2 gusting 8 9.4
2019-Dec-07 04:08 328 0 gusting 8 9.4
2019-Dec-07 04:03 342 9.4
2019-Dec-07 03:58 340 9.4
2019-Dec-07 03:53 335 8.9
2019-Dec-07 03:48 301 8.9
2019-Dec-07 03:43 332 8.3
2019-Dec-07 03:38 294 8.3
2019-Dec-07 03:33 284 7.8
2019-Dec-07 03:28 284 7.8
2019-Dec-07 03:23 285 7.8
2019-Dec-07 03:18 352 7.8
2019-Dec-07 03:13 352 7.8
2019-Dec-07 03:08 352 8.3
2019-Dec-07 03:03 352 8.3
2019-Dec-07 02:58 352 8.3
2019-Dec-07 02:53 354 8.9
2019-Dec-07 02:48 354 8.9
2019-Dec-07 02:43 328 9.4
2019-Dec-07 02:38 262 9.4
2019-Dec-07 02:33 262 10.0
2019-Dec-07 02:28 269 10.0
2019-Dec-07 02:23 308 10.0
2019-Dec-07 02:18 297 10.0
2019-Dec-07 02:13 307 10.0
2019-Dec-07 02:08 310 0 gusting 4 10.0
2019-Dec-07 02:03 292 0 gusting 4 10.0
2019-Dec-07 01:58 298 9.4
2019-Dec-07 01:53 276 9.4
2019-Dec-07 01:48 278 9.4
2019-Dec-07 01:43 298 9.4
2019-Dec-07 01:38 297 9.4
2019-Dec-07 01:33 316 9.4
2019-Dec-07 01:28 277 9.4
2019-Dec-07 01:23 276 9.4
2019-Dec-07 01:18 254 9.4
2019-Dec-07 01:13 245 9.4
2019-Dec-07 01:08 276 9.4
2019-Dec-07 01:02 245 9.4
2019-Dec-07 00:57 248 9.4
2019-Dec-07 00:52 248 9.4
2019-Dec-07 00:47 233 9.4
2019-Dec-07 00:43 217 10.0
2019-Dec-07 00:38 260 10.0
2019-Dec-07 00:33 260 10.0
2019-Dec-07 00:28 257 10.0
2019-Dec-07 00:23 257 10.0
2019-Dec-07 00:18 258 10.0
2019-Dec-07 00:13 258 10.0
2019-Dec-07 00:08 244 10.0
2019-Dec-07 00:03 208 10.0
2019-Dec-06 23:58 229 10.0
2019-Dec-06 23:53 207 10.0
2019-Dec-06 23:48 280 10.0
2019-Dec-06 23:43 281 10.0
2019-Dec-06 23:38 236 10.0
2019-Dec-06 23:33 221 10.0
2019-Dec-06 23:28 221 10.0
2019-Dec-06 23:23 259 10.0
2019-Dec-06 23:18 221 10.6
2019-Dec-06 23:13 242 0 gusting 3 10.6
2019-Dec-06 23:08 212 10.6
2019-Dec-06 23:03 248 10.6